Regional Weather Roundup
Issued by NWS Mobile, AL

Current Version | Previous Version | Text Only | Print | Product List | Glossary On
Versions: 1 2 3 4 5 6 7 8 9 10 11 12 13 14 15 16 17 18 19 20 21 22 23 24 25 26 27 28 29 30 31 32 33 34 35 36 37 38 39 40 41 42 43 44 45 46 47 48 49 50
000
ASUS44 KMOB 312312
RWRMOB
REGIONAL WEATHER ROUNDUP
NATIONAL WEATHER SERVICE MOBILE AL
600 PM CDT FRI JUL 31 2015

NOTE: "FAIR" INDICATES FEW OR NO CLOUDS BELOW 12,000 FEET WITH NO
      SIGNIFICANT WEATHER AND/OR OBSTRUCTIONS TO VISIBILITY.

  * THESE STATIONS ARE PART OF THE UNIVERSITY OF SOUTH ALABAMA
    MESONET AND ARE NOT UNDER NWS OR FAA QUALITY CONTROL.

ALZ061>064-010000-
COASTAL ALABAMA

CITY           SKY/WX    TMP DP  RH WIND       PRES   REMARKS
MOBILE REG APT MOSUNNY   90  75  61 N9        29.87S HX 100
BROOKLEY FIELD PTSUNNY   89  77  67 S5        29.87S HX 101
USA CAMPUS*      N/A     90  75  62 NE5       29.87R HX 100
DOG RIVER*     NOT AVBL


CITY           SKY/WX    TMP DP  RH WIND       PRES   REMARKS
MOUNT VERNON*    N/A     90  72  55 CALM      29.86R HX  96
SARALAND*      NOT AVBL
BAY MINETTE*   NOT AVBL
LOXLEY*          N/A     79  75  89 E10       29.89R
ROBERTSDALE*     N/A     77  75  94 CALM      29.90R
FAIRHOPE*      NOT AVBL
ELBERTA*         N/A     81  73  78 VRB7      29.88R
FOLEY*         NOT AVBL
GRAND BAY*     NOT AVBL
DAUPHIN ISLND* NOT AVBL
BON SCOUR NWR* NOT AVBL
GULF SHORES    PTSUNNY   82  77  84 NW5       29.86S

$$

ALZ051>060-010000-
INTERIOR SOUTHWEST AND SOUTH CENTRAL ALABAMA

CITY           SKY/WX    TMP DP  RH WIND       PRES   REMARKS
GREENVILLE     MOSUNNY   93  66  40 N13       29.87S HX  96
EVERGREEN      MOSUNNY   92  72  51 N9        29.87S HX  99
CASTLEBERRY*   NOT AVBL
ATMORE*          N/A     90  75  62 N10       29.89R HX 100
DIXIE*         NOT AVBL
ANDALUSIA/OPP  PTSUNNY   92  75  57 CALM      29.86  HX 103
ANDALUSIA*       N/A     86  77  74 CALM      29.87F HX  97
FLORALA APT    CLOUDY    81  72  74 CALM      29.87F
FLORALA*         N/A     82  72  69 CALM      29.83F

$$

FLZ001>006-010000-
WESTERN FLORIDA PANHANDLE

CITY           SKY/WX    TMP DP  RH WIND       PRES   REMARKS
PENSACOLA      CLOUDY    78  76  93 NW8       29.87F
NAS PENSACOLA  TSTM      78  73  84 NW5       29.85S
MILTON         TSTM      77  75  93 NW13      29.89R
WHTNG S FIELD  TSTM      79  76  90 VRB5      29.89R


CITY           SKY/WX    TMP DP  RH WIND       PRES   REMARKS
WALNUT HILL*   NOT AVBL
JAY*             N/A     79  73  83 S12       29.90R
DUKE FIELD     MOSUNNY   77  75  92 SE6       29.85F
CRESTVIEW      LGT RAIN  77  77 100 S3        29.87F FOG
VALPARAISO     PTSUNNY   82  75  80 N5        29.85F
DESTIN         CLOUDY    83  76  79 NE5       29.85F

$$

MSZ076-079-010000-
INTERIOR SOUTHEAST MISSISSIPPI

CITY           SKY/WX    TMP DP  RH WIND       PRES   REMARKS
LEAKESVILLE*   NOT AVBL
AGRICOLA*      NOT AVBL

$$

MARINE OBSERVATIONS

STATION/POSITION TIME  TEMP    WIND        PRES    WAVE
                       AIR SEA DIR/SP/G            HT/PER
                 (UTC) (F)     (DEG/KT/KT) (MB)    (FT/S)
PASCAGOULA       2200   92     350/  8/ 11 1010.8F
PETIT BOIS ISLND 2200   88     220/  4/  5 1011.6F
GRAND BAY        2100   88     200/  6     1013.0S
KATRINA CUT      2200   85     310/  3     1011.5F
CEDAR POINT      2200   85     110/  3     1011.2F
E DAUPHIN ISLAND 2200   85      30/  8/  9 1010.7F
MIDDLE BAY LIGHT 2200   83      60/ 15     1009.8F
USCG MOBILE BAY  2200   86 84  160/  8/ 11 1010.0F
STATE DOCKS      2200   94 83              1010.5F
MEAHER PARK      2200   86     160/ 13     1009.5F
WEEKS BAY        2100   80                   N/A
12 S ORANGE BCH  2250   84 86  320/  6/  8 1010.4S   1/ 4
PENSACOLA BAY    2200   89 87   CALM  /  3 1011.6R
64 S DAUPHIN ISL 2250   86 91  350/  6/  8 1011.1F   1/ 4
67 S FORT MORGAN 2230   86     330/  4     1010.5F

$$

SELECTED LOCATIONS ACROSS THE REGION

CITY           SKY/WX    TMP DP  RH WIND       PRES   REMARKS
NEW ORLEANS    MOSUNNY   92  72  51 N13       29.86F HX  99
GULFPORT       MOSUNNY   93  75  55 N14       29.84F HX 104
PASCAGOULA AP  MOSUNNY   91  77  63 E9        29.86R HX 104
PASCAGOULA*    NOT AVBL
HATTIESBURG    SUNNY     93  61  34 N8        29.90F
LAUREL         SUNNY     93  54  26 N10       29.93S
MERIDIAN       SUNNY     90  56  31 N16       29.92F
JACKSON        SUNNY     94  53  25 N17G23    29.94F
MONTGOMERY     SUNNY     94  70  45 NW10      29.87S HX 100
TROY           MOSUNNY   94  71  47 N8        29.89R HX 101
KINSTON*       NOT AVBL
GENEVA*          N/A     84  75  74 SW7       29.88F
ASHFORD*         N/A     86  77  74 CALM      29.87F HX  97
DOTHAN         PTSUNNY   88  75  65 NE7       29.90F HX  97
PANAMA CITY    PTSUNNY   81  77  88 N5        29.85F

$$




USA.gov is the U.S. government's official web portal to all federal, state and local government web resources and services.